Location: Kershaw
(34.5481°N, 80.5823°W)
Time: 13:04:28
(UTC+00:00)

A-11 Canister half - Pass Details

Date: 10 October 2022
Orbit: 1524 x 1685 km, 47.3° (Epoch: 25 November)

Event Time Altitude Azimuth Distance (km) Brightness Sun altitude
Rises 03:22:55 0° 293° (WNW) 4,741 12.1 -52.8°
Reaches altitude 10° 03:26:57 10° 278° (W) 3,779 11.4 -53.4°
Enters shadow 03:29:45 17° 263° (W) 3,295 10.9 -53.8°
